TKJ264 LWSK-LTFJ

Flight info

Callsign TKJ264
Flight time 1h 2m
Altitude 37000
Route RUGAS UN128 PEREN UN644 DIGTI UT162 DRAMO
Aircraft B738/M-SDE2E3FGHIRWXY/LB1

Departure

Time 2026-05-04 12:50
Airport Skopje International Airport (LWSK)

Arrival

Time 2026-05-04 13:52
Airport Istanbul Sabiha Gökçen International Airport (LTFJ)
Time Latitude Longitude Altitude Speed Heading
2026-05-04 12:20 41.96068 21.62587 792 ft 0 kts 77°
2026-05-04 12:36 41.96067 21.62587 820 ft 0 kts 77°
2026-05-04 12:36 41.96064 21.62569 792 ft 3 kts 84°
2026-05-04 12:36 41.96066 21.62544 792 ft 3 kts 114°
2026-05-04 12:37 41.96077 21.62525 792 ft 3 kts 152°
2026-05-04 12:37 41.96095 21.62515 792 ft 3 kts 166°
2026-05-04 12:37 41.96106 21.62512 792 ft 1 kts 166°
2026-05-04 12:45 41.96087 21.62518 792 ft 8 kts 166°
2026-05-04 12:45 41.96065 21.62525 792 ft 0 kts 166°
2026-05-04 12:45 41.96051 21.62530 792 ft 5 kts 164°
2026-05-04 12:45 41.96000 21.62549 792 ft 11 kts 165°
2026-05-04 12:46 41.95923 21.62533 792 ft 13 kts 220°
2026-05-04 12:46 41.95838 21.62526 789 ft 13 kts 166°
2026-05-04 12:46 41.95741 21.62558 786 ft 17 kts 165°
2026-05-04 12:46 41.95623 21.62602 785 ft 18 kts 165°
2026-05-04 12:47 41.95507 21.62644 784 ft 17 kts 165°
2026-05-04 12:47 41.95393 21.62685 782 ft 17 kts 166°
2026-05-04 12:47 41.95280 21.62721 780 ft 16 kts 167°
2026-05-04 12:47 41.95170 21.62747 799 ft 15 kts 191°
2026-05-04 12:48 41.95136 21.62681 799 ft 4 kts 258°
2026-05-04 12:48 41.95130 21.62646 800 ft 4 kts 258°
2026-05-04 12:48 41.95124 21.62610 800 ft 5 kts 256°
2026-05-04 12:48 41.95114 21.62543 802 ft 9 kts 277°
2026-05-04 12:49 41.95161 21.62493 804 ft 9 kts 346°
2026-05-04 12:49 41.95222 21.62473 804 ft 9 kts 346°
2026-05-04 12:49 41.95422 21.62402 802 ft 65 kts 345°
2026-05-04 12:49 41.96090 21.62169 812 ft 131 kts 345°
2026-05-04 12:50 41.97127 21.61833 1037 ft 164 kts 348°
2026-05-04 12:50 41.98295 21.61508 1640 ft 178 kts 346°
2026-05-04 12:50 41.99419 21.61099 2883 ft 158 kts 345°
2026-05-04 12:50 42.00547 21.60740 3567 ft 182 kts
2026-05-04 12:51 42.01777 21.61453 3831 ft 215 kts 44°
2026-05-04 12:51 42.02378 21.63410 4166 ft 245 kts 86°
2026-05-04 12:51 42.01861 21.65628 4815 ft 262 kts 124°
2026-05-04 12:51 42.00379 21.67107 5544 ft 274 kts 162°
2026-05-04 12:52 41.98531 21.67173 6538 ft 273 kts 196°
2026-05-04 12:52 41.96846 21.66013 7397 ft 274 kts 214°
2026-05-04 12:52 41.95173 21.64726 8179 ft 281 kts 206°
2026-05-04 12:52 41.93335 21.63752 8986 ft 285 kts 198°
2026-05-04 12:53 41.91382 21.63211 9714 ft 294 kts 175°
2026-05-04 12:53 41.89451 21.64049 10377 ft 299 kts 144°
2026-05-04 12:53 41.88008 21.66154 10572 ft 318 kts 113°
2026-05-04 12:53 41.87511 21.69087 10759 ft 335 kts 85°
2026-05-04 12:54 41.87940 21.72244 11057 ft 353 kts 79°
2026-05-04 12:54 41.87710 21.75579 11647 ft 369 kts 108°
2026-05-04 12:54 41.86436 21.78575 12501 ft 375 kts 124°
2026-05-04 12:54 41.84782 21.81322 13235 ft 381 kts 127°
2026-05-04 12:55 41.83050 21.84036 13925 ft 386 kts 127°
2026-05-04 12:55 41.81337 21.86818 14603 ft 388 kts 126°
2026-05-04 12:55 41.79671 21.89679 15294 ft 390 kts 124°
2026-05-04 12:55 41.78050 21.92604 15956 ft 393 kts 124°
2026-05-04 12:56 41.76453 21.95589 16609 ft 396 kts 123°
2026-05-04 12:56 41.74863 21.98626 17251 ft 399 kts 123°
2026-05-04 12:56 41.73271 22.01706 17873 ft 403 kts 123°
2026-05-04 12:56 41.71677 22.04798 18497 ft 406 kts 123°
2026-05-04 12:57 41.70064 22.07917 19040 ft 409 kts 123°
2026-05-04 12:57 41.68445 22.11053 19606 ft 411 kts 123°
2026-05-04 12:57 41.66816 22.14204 20179 ft 413 kts 123°
2026-05-04 12:57 41.65176 22.17371 20734 ft 415 kts 124°
2026-05-04 12:58 41.63527 22.20550 21241 ft 418 kts 123°
2026-05-04 12:58 41.61887 22.23721 21760 ft 420 kts 124°
2026-05-04 12:58 41.60220 22.26934 22288 ft 422 kts 124°
2026-05-04 12:58 41.58520 22.30202 22799 ft 425 kts 124°
2026-05-04 12:59 41.56851 22.33408 23273 ft 427 kts 124°
2026-05-04 12:59 41.55150 22.36674 23758 ft 429 kts 124°
2026-05-04 12:59 41.53440 22.39952 24108 ft 432 kts 124°
2026-05-04 12:59 41.51717 22.43253 24503 ft 434 kts 124°
2026-05-04 13:00 41.49989 22.46559 24892 ft 436 kts 124°
2026-05-04 13:00 41.48252 22.49881 25230 ft 438 kts 124°
2026-05-04 13:00 41.46498 22.53231 25581 ft 440 kts 124°
2026-05-04 13:00 41.44743 22.56580 25921 ft 443 kts 124°
2026-05-04 13:01 41.42970 22.59959 26254 ft 445 kts 124°
2026-05-04 13:01 41.41191 22.63347 26597 ft 447 kts 124°
2026-05-04 13:01 41.39402 22.66750 26928 ft 449 kts 124°
2026-05-04 13:01 41.37603 22.70172 27205 ft 452 kts 124°
2026-05-04 13:02 41.35800 22.73595 27603 ft 452 kts 124°
2026-05-04 13:02 41.33983 22.77024 27852 ft 455 kts 126°
2026-05-04 13:02 41.31834 22.80124 28131 ft 459 kts 140°
2026-05-04 13:02 41.29205 22.82549 28577 ft 459 kts 146°
2026-05-04 13:03 41.26516 22.84811 29016 ft 457 kts 147°
2026-05-04 13:03 41.23824 22.87061 29480 ft 456 kts 146°
2026-05-04 13:03 41.21162 22.89321 29921 ft 454 kts 146°
2026-05-04 13:03 41.18510 22.91610 30323 ft 453 kts 146°
2026-05-04 13:04 41.15871 22.93906 30587 ft 455 kts 146°
2026-05-04 13:04 41.13208 22.96222 30776 ft 457 kts 145°
2026-05-04 13:04 41.10692 22.98804 31021 ft 457 kts 136°
2026-05-04 13:04 41.08482 23.01812 31300 ft 456 kts 128°
2026-05-04 13:05 41.06629 23.05218 31554 ft 456 kts 122°
2026-05-04 13:05 41.04880 23.08741 31815 ft 457 kts 122°
2026-05-04 13:05 41.03143 23.12262 32104 ft 457 kts 122°
2026-05-04 13:05 41.01390 23.15773 32371 ft 458 kts 122°
2026-05-04 13:06 40.99609 23.19289 32608 ft 460 kts 122°
2026-05-04 13:06 40.97843 23.22740 32873 ft 460 kts 122°
2026-05-04 13:06 40.96024 23.26288 33163 ft 461 kts 122°
2026-05-04 13:06 40.94244 23.29762 33416 ft 461 kts 122°
2026-05-04 13:07 40.92441 23.33284 33656 ft 462 kts 122°
2026-05-04 13:07 40.90644 23.36799 33945 ft 462 kts 122°
2026-05-04 13:07 40.88843 23.40318 34227 ft 462 kts 122°
2026-05-04 13:07 40.87043 23.43834 34475 ft 462 kts 122°
2026-05-04 13:08 40.85244 23.47344 34708 ft 461 kts 122°
2026-05-04 13:08 40.83443 23.50855 34942 ft 462 kts 122°
2026-05-04 13:08 40.81642 23.54361 35167 ft 461 kts 122°
2026-05-04 13:08 40.79841 23.57866 35383 ft 462 kts 122°
2026-05-04 13:09 40.78034 23.61376 35591 ft 462 kts 122°
2026-05-04 13:09 40.76228 23.64881 35792 ft 462 kts 122°
2026-05-04 13:09 40.74422 23.68383 35984 ft 462 kts 122°
2026-05-04 13:09 40.72610 23.71891 36170 ft 463 kts 123°
2026-05-04 13:10 40.70793 23.75407 36349 ft 464 kts 123°
2026-05-04 13:10 40.68975 23.78923 36524 ft 464 kts 122°
2026-05-04 13:10 40.67160 23.82433 36709 ft 464 kts 123°
2026-05-04 13:10 40.65338 23.85951 36879 ft 465 kts 123°
2026-05-04 13:11 40.63513 23.89464 37030 ft 466 kts 123°
2026-05-04 13:11 40.61801 23.93083 37056 ft 466 kts 111°
2026-05-04 13:11 40.60899 23.97143 37102 ft 461 kts 96°
2026-05-04 13:11 40.60823 24.01331 37073 ft 456 kts 80°
2026-05-04 13:12 40.61517 24.05323 37099 ft 452 kts 72°
2026-05-04 13:12 40.63419 24.13205 37080 ft 451 kts 70°
2026-05-04 13:13 40.65342 24.21052 37072 ft 450 kts 71°
2026-05-04 13:13 40.67198 24.28902 37072 ft 449 kts 71°
2026-05-04 13:14 40.69020 24.36764 37063 ft 448 kts 72°
2026-05-04 13:14 40.70833 24.44609 37063 ft 447 kts 71°
2026-05-04 13:15 40.72644 24.52466 37060 ft 447 kts 72°
2026-05-04 13:15 40.74429 24.60250 37058 ft 447 kts 71°
2026-05-04 13:16 40.76229 24.68109 37057 ft 447 kts 71°
2026-05-04 13:16 40.78023 24.75981 37056 ft 448 kts 72°
2026-05-04 13:17 40.79815 24.83843 37052 ft 447 kts 72°
2026-05-04 13:17 40.81600 24.91702 37056 ft 447 kts 72°
2026-05-04 13:18 40.83379 24.99561 37062 ft 446 kts 72°
2026-05-04 13:18 40.84856 25.06099 37057 ft 446 kts 72°
2026-05-04 13:19 40.86622 25.13949 37066 ft 446 kts 72°
2026-05-04 13:19 40.88388 25.21808 37061 ft 445 kts 72°
2026-05-04 13:20 40.90144 25.29655 37051 ft 445 kts 72°
2026-05-04 13:20 40.91887 25.37502 37054 ft 444 kts 72°
2026-05-04 13:21 40.93617 25.45302 37053 ft 445 kts 72°
2026-05-04 13:21 40.95353 25.53136 37052 ft 444 kts 72°
2026-05-04 13:22 40.97089 25.60996 37053 ft 444 kts 72°
2026-05-04 13:22 40.98816 25.68841 37057 ft 443 kts 72°
2026-05-04 13:23 41.00533 25.76679 37068 ft 443 kts 72°
2026-05-04 13:23 41.02243 25.84516 37061 ft 442 kts 72°
2026-05-04 13:24 41.03945 25.92342 37070 ft 442 kts 72°
2026-05-04 13:24 41.05631 26.00121 37063 ft 442 kts 72°
2026-05-04 13:25 41.08163 26.11856 37051 ft 442 kts 72°
2026-05-04 13:25 41.09844 26.19685 37053 ft 441 kts 72°
2026-05-04 13:26 41.11461 26.27549 37030 ft 443 kts 79°
2026-05-04 13:26 41.11664 26.31630 37035 ft 446 kts 91°
2026-05-04 13:26 41.11276 26.35715 37031 ft 449 kts 101°
2026-05-04 13:27 41.09051 26.43474 37035 ft 452 kts 111°
2026-05-04 13:27 41.06541 26.51117 37030 ft 452 kts 110°
2026-05-04 13:28 41.04123 26.58808 37027 ft 452 kts 108°
2026-05-04 13:28 41.03386 26.62820 37017 ft 446 kts 91°
2026-05-04 13:28 41.03322 26.66857 37037 ft 445 kts 91°
2026-05-04 13:29 41.02826 26.70916 37038 ft 448 kts 103°
2026-05-04 13:29 41.01983 26.74890 37032 ft 450 kts 104°
2026-05-04 13:29 41.01094 26.78906 36572 ft 458 kts 104°
2026-05-04 13:29 41.00200 26.82927 36152 ft 451 kts 103°
2026-05-04 13:30 40.99323 26.86926 35419 ft 452 kts 103°
2026-05-04 13:30 40.98464 26.90901 34963 ft 444 kts 103°
2026-05-04 13:30 40.97622 26.94850 34161 ft 446 kts 102°
2026-05-04 13:30 40.96790 26.98780 33614 ft 439 kts 102°
2026-05-04 13:31 40.95965 27.02689 32542 ft 444 kts 102°
2026-05-04 13:31 40.95138 27.06616 31820 ft 443 kts 102°
2026-05-04 13:31 40.94307 27.10546 31050 ft 443 kts 102°
2026-05-04 13:31 40.93485 27.14429 30294 ft 444 kts 102°
2026-05-04 13:32 40.92653 27.18351 29402 ft 445 kts 101°
2026-05-04 13:32 40.91815 27.22286 28511 ft 445 kts 101°
2026-05-04 13:32 40.90973 27.26233 27712 ft 443 kts 101°
2026-05-04 13:32 40.90141 27.30120 27108 ft 438 kts 101°
2026-05-04 13:33 40.89315 27.33968 26468 ft 433 kts 101°
2026-05-04 13:33 40.88495 27.37786 25863 ft 429 kts 101°
2026-05-04 13:33 40.87683 27.41561 25252 ft 426 kts 101°
2026-05-04 13:33 40.86873 27.45323 24649 ft 422 kts 101°
2026-05-04 13:34 40.86084 27.48982 24068 ft 419 kts 101°
2026-05-04 13:34 40.85274 27.52736 23413 ft 417 kts 101°
2026-05-04 13:34 40.84492 27.56353 22740 ft 414 kts 101°
2026-05-04 13:34 40.83702 27.59993 22109 ft 410 kts 101°
2026-05-04 13:35 40.82919 27.63598 21498 ft 407 kts 101°
2026-05-04 13:35 40.81367 27.70728 20342 ft 401 kts 101°
2026-05-04 13:35 40.80600 27.74248 19769 ft 398 kts 100°
2026-05-04 13:36 40.79833 27.77760 19212 ft 397 kts 101°
2026-05-04 13:36 40.79065 27.81276 18622 ft 398 kts 101°
2026-05-04 13:36 40.78296 27.84787 17991 ft 400 kts 101°
2026-05-04 13:36 40.77522 27.88321 17365 ft 403 kts 100°
2026-05-04 13:37 40.76741 27.91872 16757 ft 401 kts 100°
2026-05-04 13:37 40.75965 27.95384 16151 ft 397 kts 100°
2026-05-04 13:37 40.75194 27.98871 15571 ft 393 kts 100°
2026-05-04 13:37 40.74687 28.01162 15190 ft 390 kts 100°
2026-05-04 13:38 40.73676 28.05723 14448 ft 385 kts 99°
2026-05-04 13:38 40.72939 28.09049 13919 ft 381 kts 99°
2026-05-04 13:38 40.72200 28.12378 13326 ft 377 kts 99°
2026-05-04 13:38 40.71461 28.15703 12773 ft 371 kts 100°
2026-05-04 13:39 40.70735 28.18982 11972 ft 375 kts 100°
2026-05-04 13:39 40.70010 28.22246 11353 ft 374 kts 101°
2026-05-04 13:39 40.69284 28.25488 11101 ft 363 kts 101°
2026-05-04 13:39 40.68581 28.28606 10984 ft 348 kts 101°
2026-05-04 13:40 40.68080 28.31636 10946 ft 326 kts 89°
2026-05-04 13:40 40.68148 28.34533 10681 ft 311 kts 74°
2026-05-04 13:40 40.68518 28.37304 10403 ft 305 kts 73°
2026-05-04 13:40 40.68899 28.40034 10122 ft 301 kts 72°
2026-05-04 13:41 40.69276 28.42728 9886 ft 296 kts 72°
2026-05-04 13:41 40.69634 28.45333 9890 ft 282 kts 72°
2026-05-04 13:41 40.69983 28.47888 9374 ft 288 kts 72°
2026-05-04 13:42 40.70682 28.53035 8767 ft 283 kts 73°
2026-05-04 13:42 40.71022 28.55573 8507 ft 279 kts 73°
2026-05-04 13:42 40.71355 28.58077 8241 ft 276 kts 73°
2026-05-04 13:42 40.71683 28.60550 7995 ft 272 kts 73°
2026-05-04 13:43 40.72007 28.62996 7748 ft 268 kts 73°
2026-05-04 13:43 40.72320 28.65372 7512 ft 265 kts 73°
2026-05-04 13:43 40.72639 28.67786 7272 ft 264 kts 73°
2026-05-04 13:43 40.72951 28.70145 7036 ft 263 kts 73°
2026-05-04 13:44 40.73262 28.72512 6801 ft 262 kts 73°
2026-05-04 13:44 40.73572 28.74875 6565 ft 261 kts 73°
2026-05-04 13:44 40.73881 28.77229 6327 ft 260 kts 74°
2026-05-04 13:44 40.74187 28.79576 6078 ft 259 kts 74°
2026-05-04 13:45 40.74491 28.81904 5840 ft 257 kts 74°
2026-05-04 13:45 40.74795 28.84234 5614 ft 258 kts 74°
2026-05-04 13:45 40.75100 28.86576 5376 ft 259 kts 74°
2026-05-04 13:45 40.75403 28.88910 5129 ft 257 kts 75°
2026-05-04 13:46 40.75702 28.91227 4927 ft 256 kts 75°
2026-05-04 13:46 40.76003 28.93542 4676 ft 256 kts 75°
2026-05-04 13:46 40.76269 28.95601 4435 ft 255 kts 75°
2026-05-04 13:46 40.76562 28.97885 4211 ft 250 kts 75°
2026-05-04 13:47 40.76850 29.00127 3999 ft 246 kts 76°
2026-05-04 13:47 40.77319 29.02226 3881 ft 233 kts 57°
2026-05-04 13:47 40.78156 29.04038 3622 ft 230 kts 52°
2026-05-04 13:47 40.79027 29.05772 3358 ft 228 kts 52°
2026-05-04 13:48 40.79897 29.07523 3152 ft 228 kts 53°
2026-05-04 13:48 40.80748 29.09296 3015 ft 228 kts 56°
2026-05-04 13:48 40.81490 29.11124 2979 ft 223 kts 59°
2026-05-04 13:48 40.82159 29.12943 2964 ft 216 kts 60°
2026-05-04 13:49 40.82789 29.14684 2903 ft 205 kts 59°
2026-05-04 13:49 40.83397 29.16350 2676 ft 199 kts 60°
2026-05-04 13:49 40.83995 29.17987 2423 ft 196 kts 60°
2026-05-04 13:49 40.84584 29.19597 2153 ft 194 kts 60°
2026-05-04 13:50 40.85163 29.21184 1897 ft 189 kts 60°
2026-05-04 13:50 40.85722 29.22713 1640 ft 180 kts 60°
2026-05-04 13:50 40.86246 29.24148 1420 ft 167 kts 60°
2026-05-04 13:50 40.86730 29.25470 1143 ft 151 kts 61°
2026-05-04 13:51 40.87172 29.26676 964 ft 146 kts 61°
2026-05-04 13:51 40.87612 29.27874 737 ft 144 kts 63°
2026-05-04 13:51 40.88045 29.29060 579 ft 141 kts 62°
2026-05-04 13:51 40.88479 29.30214 336 ft 138 kts 61°
2026-05-04 13:52 40.89134 29.32018 307 ft 72 kts 63°
2026-05-04 13:52 40.89353 29.32418 305 ft 30 kts 34°
2026-05-04 13:52 40.89472 29.32493 308 ft 17 kts 349°
2026-05-04 13:53 40.89506 29.32446 309 ft 5 kts 278°
2026-05-04 13:53 40.89505 29.32403 306 ft 5 kts 276°
2026-05-04 13:53 40.89523 29.32369 306 ft 5 kts 324°
2026-05-04 13:54 40.89583 29.32345 306 ft 4 kts 347°
2026-05-04 13:54 40.89618 29.32330 307 ft 7 kts 338°
2026-05-04 13:54 40.89734 29.32256 306 ft 10 kts 334°
2026-05-04 13:55 40.89798 29.32215 309 ft 10 kts 334°
2026-05-04 13:55 40.89918 29.32137 312 ft 9 kts 333°
2026-05-04 13:55 40.89976 29.32101 314 ft 9 kts 334°
2026-05-04 13:56 40.90032 29.32065 319 ft 9 kts 333°
2026-05-04 13:56 40.90089 29.32068 320 ft 9 kts 39°
2026-05-04 13:56 40.90144 29.32203 320 ft 8 kts 64°
2026-05-04 13:57 40.90173 29.32282 320 ft 11 kts 64°
2026-05-04 13:57 40.90211 29.32385 319 ft 14 kts 64°
2026-05-04 13:58 40.90313 29.32586 309 ft 0 kts 356°
2026-05-04 13:58 40.90331 29.32581 320 ft 4 kts 343°
2026-05-04 13:58 40.90372 29.32557 319 ft 8 kts 334°
2026-05-04 13:59 40.90423 29.32520 318 ft 8 kts 330°
2026-05-04 13:59 40.90473 29.32488 319 ft 8 kts 338°
2026-05-04 13:59 40.90571 29.32429 320 ft 7 kts 332°
2026-05-04 14:00 40.90604 29.32380 319 ft 7 kts 294°
2026-05-04 14:00 40.90678 29.32301 319 ft 7 kts 333°
2026-05-04 14:00 40.90723 29.32271 320 ft 8 kts 331°
2026-05-04 14:01 40.90732 29.32209 320 ft 8 kts 247°
2026-05-04 14:01 40.90722 29.32182 320 ft 0 kts 244°
2026-05-04 14:01 40.90715 29.32163 320 ft 5 kts 244°
2026-05-04 14:02 40.90696 29.32108 319 ft 4 kts 255°
2026-05-04 14:02 40.90694 29.32092 320 ft 2 kts 261°
2026-05-04 14:02 40.90696 29.32076 320 ft 2 kts 293°
2026-05-04 14:02 40.90699 29.32059 320 ft 2 kts 269°
2026-05-04 14:03 40.90704 29.32027 320 ft 7 kts 303°
2026-05-04 14:03 40.90749 29.31996 320 ft 0 kts 335°
2026-05-04 14:05 40.90775 29.32032 320 ft 0 kts 334°